Back to catalog

CZ-4 DEB

AliveSSO
NORAD 26119·DEBRIS·🇨🇳 China

Launched Oct 14, 1999 from Taiyuan Satellite Launch Center

Loading…

Next Passes (next 24 hours)

TLE

FreshSource: Space-Track

Epoch: Sep 14, 2026, 11:51 UTC

1 26119U 99057F   26257.49401471  .00000186  00000-0  18179-3 0  9995
2 26119  99.3746 146.5964 0486541 286.1375 255.9208 13.47579578297807

Track CZ-4 DEB in real time with AllMySat

Download on the App Store